Hourly Weather Roundup
Issued by NWS Central Illinois

Home | Current Version | Previous Version | Text Only | Print | Product List | Glossary On
Versions: 1 2 3 4 5 6 7 8 9 10 11 12 13 14 15 16 17 18 19 20 21 22 23 24 25 26 27 28 29 30 31 32 33 34 35 36 37 38 39 40 41 42 43 44 45 46 47 48 49 50
667
NZUS43 KILX 070910
HWRILX

AREA WEATHER ROUNDUP
NATIONAL WEATHER SERVICE, LINCOLN IL
300 AM CST WED DEC 07 2016


CITY           SKY/WX    TMP DP  RH WIND       PRES   REMARKS
BLOOMINGTON    CLOUDY    27  19  72 W13       30.07F WCI  16
CHAMPAIGN      CLOUDY    29  22  75 W9        30.08F WCI  20
DANVILLE       MOCLDY    29  22  75 NW9       30.06F WCI  21
DECATUR        MOCLDY    30  19  63 NW10      30.09F WCI  21
EFFINGHAM      CLOUDY    32  24  72 NW8       30.14F WCI  25
FLORA          MOCLDY    33  26  75 N3        30.14S
GALESBURG      PTCLDY    26  18  73 W12       30.10R WCI  15
JACKSONVILLE   PTCLDY    26  20  77 W8        30.12S WCI  18
LACON          CLOUDY    28  18  65 W12       30.08S WCI  18
LAWRENCEVILLE  PTCLDY    31  25  78 NW5       30.14R WCI  26
LITCHFIELD     CLOUDY    30  22  71 NW5       30.12S WCI  25
$$


CITY           SKY/WX    TMP DP  RH WIND       PRES   REMARKS
LINCOLN        CLOUDY    30  21  68 W3        30.10S
MACOMB         PTCLDY    28  19  68 NW14      30.13S WCI  17
MATTOON        MOCLDY    30  21  69 NW9       30.10R WCI  22
MT CARMEL AP   CLOUDY    31  27  84 CALM      30.14S
OLNEY-NOBLE AP PTCLDY    32  27  80 NW5       30.14S WCI  27
PARIS          PTCLDY    29  25  83 NW5       30.10F WCI  24
PEORIA         PTCLDY    29  17  61 W12       30.10F WCI  19
PONTIAC        CLOUDY    29  24  79 W10       30.08F WCI  20
RANTOUL        CLOUDY    31  26  83 NW8       30.07F WCI  23
SPRINGFIELD    PTCLDY    31  21  66 W6        30.12S WCI  25
TAYLORVILLE    CLOUDY    30  20  66 NW8       30.12R WCI  23
$$

...REGIONAL REPORTS...


CITY           SKY/WX    TMP DP  RH WIND       PRES   REMARKS
CHICAGO O`HARE MOCLDY    26  18  71 W16G25    30.00S WCI  14
KANKAKEE       CLOUDY    28  21  75 W10       30.08R WCI  19
MOLINE         CLEAR     27  15  61 W22G29    30.08R WCI  13
MOUNT STERLING PTCLDY    28  18  64 W7        30.12R WCI  21
MOUNT VERNON   NOT AVBL
PITTSFIELD     CLOUDY    30  19  65 W5        30.14R WCI  25
QUINCY         PTCLDY    29  17  61 W9        30.14R WCI  20
ROCKFORD       PTCLDY    24  16  71 W16G23    30.03R WCI  11
$$


CITY           SKY/WX    TMP DP  RH WIND       PRES   REMARKS
BURLINGTON     PTCLDY    27  16  63 W8G17     30.12R WCI  19
CEDAR RAPIDS   CLEAR     20  15  81 W18       30.09R WCI   5
DES MOINES     CLOUDY    22  11  62 NW17      30.15R WCI   8
KIRKSVILLE     CLOUDY    28  13  53 NW9       30.15R WCI  19
OTTUMWA        PTCLDY    25  13  60 W15       30.13R WCI  13
ST LOUIS       PTCLDY    30  19  63 NW6       30.14S WCI  24
$$


CITY           SKY/WX    TMP DP  RH WIND       PRES   REMARKS
TERRE HAUTE    CLOUDY    30  22  72 NW3       30.11R
EVANSVILLE     CLOUDY    36  29  75 N3        30.14R
INDIANAPOLIS   PTCLDY    26  21  81 W8        30.09R WCI  18
LAFAYETTE      CLOUDY    28  22  78 W9        30.09R WCI  19
MADISON        MOCLDY    22  14  71 W10G20    29.94R WCI  11
MILWAUKEE      CLEAR     26  15  63 W16G28    29.94R WCI  14
$$






USA.gov is the U.S. government's official web portal to all federal, state and local government web resources and services.